Terminal Aerodrome Forecast
Issued by NWS Billings, MT

Home | Current Version | Previous Version | Text Only | Print | Product List | Glossary On
Versions: 1 2 3 4 5 6 7 8 9 10 11 12 13 14 15 16 17 18 19 20 21 22 23 24 25 26 27 28 29 30 31 32 33 34 35 36 37 38 39
000
FTUS45 KBYZ 021606 AAB
TAFMLS
TAF AMD
KMLS 021606Z 0216/0312 32015G24KT P6SM VCSH SCT050 OVC070
     FM021800 32025G34KT P6SM VCSH SCT025 OVC040
     FM030100 32011KT P6SM FEW060=

USA.gov is the U.S. government's official web portal to all federal, state and local government web resources and services.